LEMUR-2-CHANUSIAK (43697 NORAD) Tracking and Keplerian Element Data

This shows tracking and keplerian element data for the satellite.

Feedback or suggestion? Click here.




ElementValue
Catalog43697
NameLEMUR-2-CHANUSIAK
Epoch Orbit436
Epoch Day343.81845102
Epoch Year2018
RAAN84.0946
Inclination85.0399
Eccentricity0.0017257
Argument of Perigee161.4081
Mean Anonmoly198.7795
Mean Motion15.20455511
Decay Rate2.68E-05
L11 43697U 18088H 18343.81845102 .00002680 00000-0 12064-3 0 9994
L22 43697 85.0399 84.0946 0017257 161.4081 198.7795 15.20455511 4367

Live tracking and technical data element details for LEMUR-2-CHANUSIAK (NORAD 43697). LEMUR-2-CHANUSIAK can be tracked NOW for your location showing map with azimuth and elevation plus other details from your city location.

Track the satellite on the map from your city or location and see movement details for azimuth, elevation, latitude, longitude, range, height, and movement on the map or in text.







IsCatalogInMostPopularTable: catalog: 43697, numindb: 21
Update: records affected: 1



GetName: 43697 LEMUR-2-CHANUSIAK

Hit Count: updated at: Tue, 11 Dec 2018 02:23:31 GMT